|
NORAD ID: 9983 Int'l Code: 1977-012G
Perigee: 824.8 km
Apogee: 3,779.1 km
Inclination: 65.6 °
Period: 134.0 minutes
Semi major axis: 8672 km
Launch date: February 19, 1977
Source: Japan (JPN)
Note: This is SATELLITE DEBRIS
Two Line Element Set (TLE):
1 09983U 77012G 13138.02931436 .00000087 00000-0 37841-3 0 903
2 09983 065.6002 336.4379 1703155 070.1443 054.8393 10.74861656424002
Source:
NASA's NSSDC Master Catalog entry for TANSEI 3 DEB
|